Time,TemperatureF,DewpointF,PressureIn,WindDirection,WindDirectionDegrees,WindSpeedMPH,WindSpeedGustMPH,Humidity,HourlyPrecipIn,Conditions,Clouds,dailyrainin,SoftwareType,DateUTC
2015-08-28 00:04:00,73.0,41.0,-100.00,SW,224,12.0,22.0,32,-99.99,,,-99.99,,2015-08-28 06:04:00,
2015-08-28 00:14:00,73.0,41.0,-100.00,SW,224,12.0,22.0,32,-99.99,,,-99.99,,2015-08-28 06:14:00,
2015-08-28 00:21:00,71.0,40.0,-100.00,SW,235,11.0,15.0,32,-99.99,,,-99.99,,2015-08-28 06:21:00,
2015-08-28 00:45:00,71.0,40.0,-100.00,SW,235,11.0,15.0,32,-99.99,,,-99.99,,2015-08-28 06:45:00,
2015-08-28 00:54:00,71.0,40.0,-100.00,SW,235,11.0,15.0,32,-99.99,,,-99.99,,2015-08-28 06:54:00,
2015-08-28 01:04:00,71.0,40.0,-100.00,SW,235,11.0,15.0,32,-99.99,,,-99.99,,2015-08-28 07:04:00,
2015-08-28 01:13:00,71.0,40.0,-100.00,SW,235,11.0,15.0,32,-99.99,,,-99.99,,2015-08-28 07:13:00,
2015-08-28 01:21:00,65.0,41.0,-100.00,West,268,12.0,16.0,41,-99.99,,,-99.99,,2015-08-28 07:21:00,
2015-08-28 01:44:00,65.0,41.0,-100.00,West,268,12.0,16.0,41,-99.99,,,-99.99,,2015-08-28 07:44:00,
2015-08-28 01:53:00,65.0,41.0,-100.00,West,268,12.0,16.0,41,-99.99,,,-99.99,,2015-08-28 07:53:00,
2015-08-28 02:03:00,65.0,41.0,-100.00,West,268,12.0,16.0,41,-99.99,,,-99.99,,2015-08-28 08:03:00,
2015-08-28 02:13:00,65.0,41.0,-100.00,West,268,12.0,16.0,41,-99.99,,,-99.99,,2015-08-28 08:13:00,
2015-08-28 02:21:00,64.0,40.0,-100.00,WNW,297,12.0,16.0,42,-99.99,,,-99.99,,2015-08-28 08:21:00,
2015-08-28 02:44:00,64.0,40.0,-100.00,WNW,297,12.0,16.0,42,-99.99,,,-99.99,,2015-08-28 08:44:00,
2015-08-28 02:54:00,64.0,40.0,-100.00,WNW,297,12.0,16.0,42,-99.99,,,-99.99,,2015-08-28 08:54:00,
2015-08-28 03:03:00,64.0,40.0,-100.00,WNW,297,12.0,16.0,42,-99.99,,,-99.99,,2015-08-28 09:03:00,
2015-08-28 03:13:00,64.0,40.0,-100.00,WNW,297,12.0,16.0,42,-99.99,,,-99.99,,2015-08-28 09:13:00,
2015-08-28 03:21:00,64.0,47.0,-100.00,West,267,12.0,15.0,53,-99.99,,,-99.99,,2015-08-28 09:21:00,
2015-08-28 03:44:00,64.0,47.0,-100.00,West,267,12.0,15.0,53,-99.99,,,-99.99,,2015-08-28 09:44:00,
2015-08-28 03:54:00,64.0,47.0,-100.00,West,267,12.0,15.0,53,-99.99,,,-99.99,,2015-08-28 09:54:00,
2015-08-28 04:04:00,64.0,47.0,-100.00,West,267,12.0,15.0,53,-99.99,,,-99.99,,2015-08-28 10:04:00,
2015-08-28 04:13:00,64.0,47.0,-100.00,West,267,12.0,15.0,53,-99.99,,,-99.99,,2015-08-28 10:13:00,
2015-08-28 04:21:00,63.0,48.0,-100.00,WNW,284,12.0,16.0,57,-99.99,,,-99.99,,2015-08-28 10:21:00,
2015-08-28 04:44:00,63.0,48.0,-100.00,WNW,284,12.0,16.0,57,-99.99,,,-99.99,,2015-08-28 10:44:00,
2015-08-28 04:54:00,63.0,48.0,-100.00,WNW,284,12.0,16.0,57,-99.99,,,-99.99,,2015-08-28 10:54:00,
2015-08-28 05:03:00,63.0,48.0,-100.00,WNW,284,12.0,16.0,57,-99.99,,,-99.99,,2015-08-28 11:03:00,
2015-08-28 05:13:00,63.0,48.0,-100.00,WNW,284,12.0,16.0,57,-99.99,,,-99.99,,2015-08-28 11:13:00,
2015-08-28 05:44:00,61.0,47.0,-100.00,West,268,11.0,16.0,60,-99.99,,,-99.99,,2015-08-28 11:44:00,
2015-08-28 05:54:00,61.0,47.0,-100.00,West,268,11.0,16.0,60,-99.99,,,-99.99,,2015-08-28 11:54:00,
2015-08-28 06:04:00,61.0,47.0,-100.00,West,268,11.0,16.0,60,-99.99,,,-99.99,,2015-08-28 12:04:00,
2015-08-28 06:13:00,61.0,47.0,-100.00,West,268,11.0,16.0,60,-99.99,,,-99.99,,2015-08-28 12:13:00,
2015-08-28 06:21:00,60.0,48.0,-100.00,West,277,14.0,16.0,65,-99.99,,,-99.99,,2015-08-28 12:21:00,
2015-08-28 06:44:00,60.0,48.0,-100.00,West,277,14.0,16.0,65,-99.99,,,-99.99,,2015-08-28 12:44:00,
2015-08-28 06:54:00,60.0,48.0,-100.00,West,277,14.0,16.0,65,-99.99,,,-99.99,,2015-08-28 12:54:00,
2015-08-28 07:04:00,60.0,48.0,-100.00,West,277,14.0,16.0,65,-99.99,,,-99.99,,2015-08-28 13:04:00,
2015-08-28 07:13:00,60.0,48.0,-100.00,West,277,14.0,16.0,65,-99.99,,,-99.99,,2015-08-28 13:13:00,
2015-08-28 07:21:00,60.0,48.0,-100.00,WNW,295,9.0,17.0,65,-99.99,,,-99.99,,2015-08-28 13:21:00,
2015-08-28 07:44:00,60.0,48.0,-100.00,WNW,295,9.0,17.0,65,-99.99,,,-99.99,,2015-08-28 13:44:00,
2015-08-28 07:54:00,60.0,48.0,-100.00,WNW,295,9.0,17.0,65,-99.99,,,-99.99,,2015-08-28 13:54:00,
2015-08-28 08:03:00,60.0,48.0,-100.00,WNW,295,9.0,17.0,65,-99.99,,,-99.99,,2015-08-28 14:03:00,
2015-08-28 08:13:00,60.0,48.0,-100.00,WNW,295,9.0,17.0,65,-99.99,,,-99.99,,2015-08-28 14:13:00,
2015-08-28 08:21:00,66.0,51.0,-100.00,West,271,11.0,16.0,59,-99.99,,,-99.99,,2015-08-28 14:21:00,
2015-08-28 08:44:00,66.0,51.0,-100.00,West,271,11.0,16.0,59,-99.99,,,-99.99,,2015-08-28 14:44:00,
2015-08-28 08:54:00,66.0,51.0,-100.00,West,271,11.0,16.0,59,-99.99,,,-99.99,,2015-08-28 14:54:00,
2015-08-28 09:04:00,66.0,51.0,-100.00,West,271,11.0,16.0,59,-99.99,,,-99.99,,2015-08-28 15:04:00,
2015-08-28 09:13:00,66.0,51.0,-100.00,West,271,11.0,16.0,59,-99.99,,,-99.99,,2015-08-28 15:13:00,
2015-08-28 09:47:00,66.0,50.0,-100.00,West,271,9.0,16.0,56,-99.99,,,-99.99,,2015-08-28 15:47:00,
2015-08-28 09:54:00,66.0,50.0,-100.00,West,271,9.0,16.0,56,-99.99,,,-99.99,,2015-08-28 15:54:00,
2015-08-28 10:04:00,66.0,50.0,-100.00,West,271,9.0,16.0,56,-99.99,,,-99.99,,2015-08-28 16:04:00,
2015-08-28 10:13:00,66.0,50.0,-100.00,West,271,9.0,16.0,56,-99.99,,,-99.99,,2015-08-28 16:13:00,